Pleasanton, CA

3:15 PM PDT on August 27, 2016 (GMT -0700)
Livermore Municipal

Weather History for KLVK - February, 2013

Change the Weather History Date:

Friday, February 22, 2013

  Actual Average Record
Temperature  
Mean Temperature 49 °F 52 °F  
Max Temperature 63 °F 62 °F 79 °F (2012)
Min Temperature 34 °F 41 °F 29 °F (1955)
Degree Days  
Heating Degree Days 16 13  
Month to date heating degree days 366 332  
Since 1 July heating degree days 1855 1930  
Cooling Degree Days 0 0  
Month to date cooling degree days 0 0  
Year to date cooling degree days 0 0  
Moisture  
Dew Point 37 °F    
Average Humidity 66    
Maximum Humidity 92    
Minimum Humidity 39    
Precipitation  
Precipitation 0.00 in 0.12 in 0.53 in (1979)
Month to date precipitation 0.41 2.33  
Year to date precipitation 1.12 5.34  
Since 1 July precipitation 9.41  
Sea Level Pressure  
Sea Level Pressure 30.22 in    
Wind  
Wind Speed 4 mph (WSW)    
Max Wind Speed 17 mph    
Max Gust Speed 18 mph    
Visibility 10 miles    
Events      
T = Trace of Precipitation, MM = Missing Value Source: NWS Daily Summary

Daily Weather History Graph

Daily Weather History Graph

Search for Another Location

Airport or City:

Trip Planner

Search our weather history database for the weather conditions in past years. The results will help you decide how hot, cold, wet, or windy it might be!

Date:

Astronomy

Feb. 22, 2013 Rise Set
Actual Time 6:47 AM PST 5:54 PM PST
Civil Twilight 6:21 AM PST 6:20 PM PST
Nautical Twilight 5:50 AM PST 6:51 PM PST
Astronomical Twilight 5:20 AM PST 7:21 PM PST
Moon 3:12 PM PST (2/22) 4:34 AM PST (2/22)
Length of Visible Light 11h 59m
Length of Day
11h 06m
Waxing Gibbous, 91% of the Moon is Illuminated
Feb 22
Waxing Gibbous
Feb 25
Full
Mar 4
Last Quarter
Mar 11
New
Mar 19
First Quarter

Hourly Weather History & Observations

Time (PST) Temp. Windchill Dew Point Humidity Pressure Visibility Wind Dir Wind Speed Gust Speed Precip Events Conditions
12:53 AM 39.0 °F - 34.0 °F 82% 30.19 in 10.0 mi Calm Calm - N/A   Clear
1:53 AM 37.0 °F 34.5 °F 33.1 °F 86% 30.19 in 10.0 mi NE 3.5 mph - N/A   Clear
2:53 AM 36.0 °F 33.3 °F 33.1 °F 89% 30.18 in 10.0 mi ENE 3.5 mph - N/A   Clear
3:53 AM 36.0 °F - 32.0 °F 86% 30.19 in 10.0 mi Calm Calm - N/A   Clear
4:53 AM 36.0 °F - 32.0 °F 86% 30.20 in 10.0 mi Calm Calm - N/A   Clear
5:53 AM 35.1 °F - 30.9 °F 85% 30.22 in 10.0 mi Calm Calm - N/A   Clear
6:53 AM 35.1 °F - 30.9 °F 85% 30.23 in 10.0 mi Calm Calm - N/A   Clear
7:53 AM 37.9 °F - 33.1 °F 83% 30.25 in 10.0 mi Calm Calm - N/A   Clear
8:53 AM 43.0 °F - 34.0 °F 71% 30.25 in 10.0 mi Calm Calm - N/A   Clear
9:53 AM 48.9 °F - 36.0 °F 61% 30.26 in 10.0 mi WNW 3.5 mph - N/A   Clear
10:53 AM 53.1 °F - 37.9 °F 57% 30.25 in 10.0 mi Calm Calm - N/A   Clear
11:53 AM 57.0 °F - 34.0 °F 42% 30.24 in 10.0 mi Calm Calm - N/A   Clear
12:53 PM 60.1 °F - 35.1 °F 39% 30.22 in 10.0 mi Variable 3.5 mph - N/A   Clear
1:53 PM 63.0 °F - 39.9 °F 43% 30.19 in 10.0 mi West 10.4 mph - N/A   Clear
2:53 PM 62.1 °F - 39.0 °F 43% 30.18 in 10.0 mi WSW 9.2 mph - N/A   Clear
3:53 PM 61.0 °F - 35.1 °F 38% 30.18 in 10.0 mi West 13.8 mph - N/A   Clear
4:53 PM 57.9 °F - 34.0 °F 41% 30.19 in 10.0 mi West 13.8 mph - N/A   Clear
5:53 PM 53.1 °F - 35.1 °F 50% 30.19 in 10.0 mi WSW 4.6 mph - N/A   Clear
6:53 PM 50.0 °F - 39.9 °F 68% 30.19 in 10.0 mi WSW 3.5 mph - N/A   Clear
7:53 PM 48.9 °F - 43.0 °F 80% 30.22 in 10.0 mi West 11.5 mph - N/A   Clear
8:53 PM 48.0 °F - 43.0 °F 83% 30.21 in 10.0 mi SSE 3.5 mph - N/A   Clear
9:53 PM 48.0 °F - 43.0 °F 83% 30.25 in 10.0 mi Variable 3.5 mph - N/A   Mostly Cloudy
10:53 PM 48.9 °F - 44.1 °F 83% 30.25 in 10.0 mi SW 5.8 mph - N/A   Overcast
11:24 PM 48.2 °F - 44.6 °F 87% 30.24 in 10.0 mi West 4.6 mph - N/A   Overcast
11:53 PM 48.9 °F - 44.1 °F 83% 30.24 in 10.0 mi SSW 3.5 mph - N/A   Overcast